{"data":{"norad_id":37606,"intl_designator":"2011-022B","name":"ST-2","alt_names":[],"object_type":"PAYLOAD","status":"ACTIVE","operator":null,"country":"STCT","launch_date":"2011-05-20","launch_site_code":"FRGUI","launch_vehicle":null,"mission":null,"orbit_class":"UNKNOWN","rcs_meters":5.6234,"size_class":null,"mass_kg":null,"dimensions":null,"purposes":["comms"],"wikipedia_slug":null,"has_3d_model":false,"image_url":null,"decayed_at":null,"tle_current":{"epoch":"2026-09-19T12:15:26.526816Z","epoch_age_seconds":107490,"freshness":"FRESH","line1":"1 37606U 11022B   26262.51072369 -.00000216  00000+0  00000+0 0  9997","line2":"2 37606   0.0194 173.8059 0001662   5.0313  91.4656  1.00273665 56224","mean_motion":1.00273665,"eccentricity":0.0001662,"inclination_deg":0.0194,"raan_deg":173.8059,"arg_perigee_deg":5.0313,"mean_anomaly_deg":91.4656,"bstar":0,"rev_number":5622,"period_min":1436.0699790917,"perigee_km":35779.060246318,"apogee_km":35793.07562804,"semimajor_km":42164.204937179,"source":"CELESTRAK","updated_at":"2026-09-20T09:00:35.168663Z"}}}